Flag for Germany Weather past 2 weeks in Wetzlar, Hesse, Germany

Now
35 °F

Overcast.


Feels Like: 31 °F
Forecast: 34 / 39 °F
Wind: 5 mph from Southwest

Location: Giessen

Current Time: Jan 28, 2015 at 12:02:19 AM

Latest Report: Jan 27, 2015 at 11:00 PM


Visibility: 4 mi

Pressure: 30.19 "Hg

Humidity: 98%

Dew point: 35 °F

Location of WetzlarLocation

Historic Weather in Wetzlar — Graph

°F

Wetzlar temperature yesterday

Maximum temperature yesterday: 39 °F (at 2:00 PM)
Minimum temperature yesterday: 32 °F (at 7:00 AM)
Average temperature yesterday: 36 °F

Past Weeks' High & Low Weather Summary

 TemperatureHumidityPressure
High53 °F (Jan 13, 3:00 PM)100% (Jan 18, 2:00 AM)30.43 "Hg (Jan 18, 2:00 AM)
Low22 °F (Jan 25, 3:00 AM)53% (Jan 13, 3:00 PM)29.59 "Hg (Jan 15, 7:00 PM)
Average35 °F91%30.01 "Hg
* Reported Jan 12 11:00 PM — Jan 27 11:00 PM, Wetzlar, Weather by CustomWeather, © 2014

Note: Actual official high and low records may vary slightly from our data, if they occured in-between our weather recording intervals... More about our weather records

Advertising

Wetzlar weather history for previous 24 hours

 ConditionsComfort  
Time TempWeatherWind HumidityBarometerVisibility
11:00 PM
Jan 27
35 °FOvercast.5 mph98%30.19 "Hg4 mi
10:00 PM34 °FFog.2 mph98%30.19 "Hg4 mi
9:00 PM34 °FPassing clouds.2 mph97%30.19 "Hg7 mi
8:00 PM36 °FOvercast.3 mph97%30.19 "Hg7 mi
7:00 PM37 °FOvercast.5 mph97%30.19 "Hg9 mi
6:00 PM36 °FLow clouds.2 mph98%30.18 "Hg7 mi
5:00 PM37 °FLow clouds.2 mph95%30.17 "Hg8 mi
4:00 PM38 °FDrizzle. Low clouds.3 mph93%30.16 "Hg9 mi
3:00 PM38 °FDrizzle. Overcast.5 mph91%30.16 "Hg16 mi
2:00 PM39 °FOvercast.7 mph91%30.15 "Hg16 mi
1:00 PM38 °FOvercast.5 mph93%30.16 "Hg16 mi
12:00 PM36 °FLight freezing rain. Low clouds.6 mph95%30.18 "Hg6 mi
11:00 AM36 °FDrizzle. Low clouds.5 mph96%30.18 "Hg11 mi
10:00 AM34 °FDrizzle. Low clouds.3 mph98%30.17 "Hg6 mi
9:00 AM34 °FDrizzle. Low clouds.5 mph99%30.16 "Hg5 mi
8:00 AM33 °FLow clouds.5 mph98%30.15 "Hg9 mi
7:00 AM32 °FPassing clouds.5 mph98%30.15 "Hg12 mi
6:00 AM34 °FClear.3 mph95%30.14 "Hg25 mi
5:00 AM34 °FClear.5 mph97%30.13 "Hg28 mi
4:00 AM34 °FClear.3 mph96%30.12 "Hg25 mi
3:00 AM35 °FClear.5 mph94%30.11 "Hg25 mi
2:00 AM35 °FPassing clouds.2 mph94%30.10 "Hg25 mi
1:00 AM37 °FPassing clouds.2 mph91%30.09 "Hg28 mi
12:00 AM36 °FOvercast.2 mph95%30.09 "Hg19 mi
Weather by CustomWeather, © 2014

See weather overviewHow to use our weather pages